User: anonymous   Login
Location: Unspecified
(0.0000°N, 0.0000°E)
Time: 13:30:11
(UTC+01:00)
Language:

Hamsat - Orbit

View from above orbital plane
View from above orbital plane
View from above satellite
View from above satellite

Ground track
Ground track

The orbit data is extracted from the following two-line orbital elements,

1 28650U 05017B   15059.62532281  .00002697  00000-0  30627-3 0  9998
2 28650 097.5700 057.0773 0025336 034.4243 325.8609 14.86856830531314
Epoch (UTC): 28 February 2015 15:00:27
Eccentricity: 0.0025336
inclination: 97.5700°
perigee height: 590 km
apogee height: 625 km
right ascension of ascending node: 57.0773°
argument of perigee: 34.4243°
revolutions per day: 14.86856830
mean anomaly at epoch: 325.8609°
orbit number at epoch: 53131

The dashed part of the orbit path shows where the satellite is in the earth's shadow,  

DLR